Location: Newark
(54.6833°N, 25.2833°E)
Time: 00:01:22
(UTC+00:00)

Tiros 1 despin weight - Pass Details

Date: 26 November 2019
Orbit: 594 x 642 km, 48.2° (Epoch: 06 December)

Event Time Altitude Azimuth Distance (km) Brightness Sun altitude
Rises 09:29:04 0° 221° (SW) 2,825 ? 14.0°
Reaches altitude 10° 09:31:44 10° 207° (SSW) 1,923 ? 14.0°
Maximum altitude 09:35:08 22° 156° (SSE) 1,308 ? 14.1°
Drops below altitude 10° 09:38:33 10° 105° (ESE) 1,929 ? 14.2°
Sets 09:41:13 0° 90° (E) 2,837 ? 14.2°
